Time,TemperatureF,DewpointF,PressureIn,WindDirection,WindDirectionDegrees,WindSpeedMPH,WindSpeedGustMPH,Humidity,HourlyPrecipIn,Conditions,Clouds,dailyrainin,SoftwareType,DateUTC
2013-03-18 00:04:00,63.4,53.5,30.04,ESE,113,0.0,0.0,70,0.00,,,0.00,WUHU216HW,2013-03-18 04:04:00,
2013-03-18 00:09:00,63.2,53.3,30.04,ESE,113,0.0,0.0,70,0.00,,,0.00,WUHU216HW,2013-03-18 04:09:00,
2013-03-18 00:14:00,63.2,53.3,30.03,East,90,0.7,0.7,70,0.00,,,0.00,WUHU216HW,2013-03-18 04:14:00,
2013-03-18 00:19:00,63.0,53.5,30.03,ENE,68,0.2,0.9,71,0.00,,,0.00,WUHU216HW,2013-03-18 04:19:00,
2013-03-18 00:24:00,63.0,53.1,30.03,ESE,113,0.0,0.9,70,0.00,,,0.00,WUHU216HW,2013-03-18 04:24:00,
2013-03-18 00:29:00,63.0,53.1,30.03,SE,135,0.0,0.7,70,0.00,,,0.00,WUHU216HW,2013-03-18 04:29:00,
2013-03-18 00:34:00,63.0,53.1,30.03,SE,135,0.0,0.7,70,0.00,,,0.00,WUHU216HW,2013-03-18 04:34:00,
2013-03-18 00:39:00,63.0,53.1,30.03,SE,135,0.0,0.0,70,0.00,,,0.00,WUHU216HW,2013-03-18 04:39:00,
2013-03-18 00:44:00,63.0,53.1,30.03,SE,135,0.0,0.0,70,0.00,,,0.00,WUHU216HW,2013-03-18 04:44:00,
2013-03-18 00:49:00,63.0,53.1,30.03,SE,135,0.0,0.0,70,0.00,,,0.00,WUHU216HW,2013-03-18 04:49:00,
2013-03-18 00:54:00,63.0,53.1,30.03,SE,135,0.0,0.0,70,0.00,,,0.00,WUHU216HW,2013-03-18 04:54:00,
2013-03-18 00:59:00,63.0,53.1,30.03,SE,135,0.0,0.0,70,0.00,,,0.00,WUHU216HW,2013-03-18 04:59:00,
2013-03-18 01:04:00,62.8,53.3,30.03,SSE,158,0.0,0.0,71,0.00,,,0.00,WUHU216HW,2013-03-18 05:04:00,
2013-03-18 01:09:00,62.8,53.3,30.03,SSE,158,0.0,0.0,71,0.00,,,0.00,WUHU216HW,2013-03-18 05:09:00,
2013-03-18 01:14:00,62.6,53.1,30.03,SSE,158,0.0,0.0,71,0.00,,,0.00,WUHU216HW,2013-03-18 05:14:00,
2013-03-18 01:19:00,62.6,53.1,30.03,East,90,0.0,0.0,71,0.00,,,0.00,WUHU216HW,2013-03-18 05:19:00,
2013-03-18 01:24:00,62.5,53.3,30.03,East,90,0.0,0.0,72,0.00,,,0.00,WUHU216HW,2013-03-18 05:24:00,
2013-03-18 01:29:00,62.5,53.3,30.03,East,90,0.0,0.0,72,0.00,,,0.00,WUHU216HW,2013-03-18 05:29:00,
2013-03-18 01:34:00,62.5,53.3,30.03,NE,45,0.0,0.0,72,0.00,,,0.00,WUHU216HW,2013-03-18 05:34:00,
2013-03-18 01:39:00,62.5,53.3,30.02,NE,45,0.0,0.0,72,0.00,,,0.00,WUHU216HW,2013-03-18 05:39:00,
2013-03-18 01:44:00,62.5,53.3,30.03,NE,45,0.0,0.0,72,0.00,,,0.00,WUHU216HW,2013-03-18 05:44:00,
2013-03-18 01:49:00,62.5,53.3,30.02,NE,45,0.0,0.0,72,0.00,,,0.00,WUHU216HW,2013-03-18 05:49:00,
2013-03-18 01:54:00,62.3,53.1,30.02,NE,45,0.0,0.0,72,0.00,,,0.00,WUHU216HW,2013-03-18 05:54:00,
2013-03-18 01:59:00,62.3,53.1,30.02,NE,45,0.0,0.0,72,0.00,,,0.00,WUHU216HW,2013-03-18 05:59:00,
2013-03-18 02:04:00,62.3,53.1,30.02,NE,45,0.0,0.0,72,0.00,,,0.00,WUHU216HW,2013-03-18 06:04:00,
2013-03-18 02:09:00,62.3,53.1,30.02,NW,315,0.0,0.0,72,0.00,,,0.00,WUHU216HW,2013-03-18 06:09:00,
2013-03-18 02:14:00,62.3,53.1,30.02,NW,315,0.0,0.0,72,0.00,,,0.00,WUHU216HW,2013-03-18 06:14:00,
2013-03-18 02:19:00,62.3,53.1,30.02,NW,315,0.0,0.0,72,0.00,,,0.00,WUHU216HW,2013-03-18 06:19:00,
2013-03-18 02:24:00,62.3,53.1,30.02,West,270,0.4,0.9,72,0.00,,,0.00,WUHU216HW,2013-03-18 06:24:00,
2013-03-18 02:29:00,62.3,53.1,30.02,West,270,0.0,0.9,72,0.00,,,0.00,WUHU216HW,2013-03-18 06:29:00,
2013-03-18 02:34:00,62.1,53.0,30.02,West,270,0.0,0.4,72,0.00,,,0.00,WUHU216HW,2013-03-18 06:34:00,
2013-03-18 02:39:00,62.1,53.4,30.02,NE,45,0.4,0.4,73,0.00,,,0.00,WUHU216HW,2013-03-18 06:39:00,
2013-03-18 02:44:00,61.9,53.2,30.01,NE,45,0.0,0.7,73,0.00,,,0.00,WUHU216HW,2013-03-18 06:44:00,
2013-03-18 02:49:00,61.7,53.0,30.01,NE,45,0.4,0.7,73,0.00,,,0.00,WUHU216HW,2013-03-18 06:49:00,
2013-03-18 02:54:00,61.7,53.0,30.02,NE,45,0.0,0.7,73,0.00,,,0.00,WUHU216HW,2013-03-18 06:54:00,
2013-03-18 02:59:00,61.6,52.8,30.02,NE,45,0.0,0.4,73,0.00,,,0.00,WUHU216HW,2013-03-18 06:59:00,
2013-03-18 03:04:00,61.6,52.8,30.02,NE,45,0.0,0.0,73,0.00,,,0.00,WUHU216HW,2013-03-18 07:04:00,
2013-03-18 03:09:00,61.6,52.8,30.01,NE,45,0.0,0.0,73,0.00,,,0.00,WUHU216HW,2013-03-18 07:09:00,
2013-03-18 03:14:00,61.6,52.8,30.01,NE,45,0.0,0.0,73,0.00,,,0.00,WUHU216HW,2013-03-18 07:14:00,
2013-03-18 03:19:00,61.6,52.8,30.01,NE,45,0.0,0.0,73,0.00,,,0.00,WUHU216HW,2013-03-18 07:19:00,
2013-03-18 03:24:00,61.6,52.8,30.01,NE,45,0.0,0.0,73,0.00,,,0.00,WUHU216HW,2013-03-18 07:24:00,
2013-03-18 03:29:00,61.4,53.0,30.01,NE,45,0.0,0.0,74,0.00,,,0.00,WUHU216HW,2013-03-18 07:29:00,
2013-03-18 03:34:00,61.2,52.9,30.01,NE,45,0.0,0.0,74,0.00,,,0.00,WUHU216HW,2013-03-18 07:34:00,
2013-03-18 03:39:00,61.2,52.9,30.01,NE,45,0.0,0.0,74,0.00,,,0.00,WUHU216HW,2013-03-18 07:39:00,
2013-03-18 03:44:00,61.4,53.0,30.01,NNW,338,0.0,0.0,74,0.00,,,0.00,WUHU216HW,2013-03-18 07:44:00,
2013-03-18 03:49:00,61.2,53.7,30.00,SSE,158,1.1,1.1,76,0.00,,,0.00,WUHU216HW,2013-03-18 07:49:00,
2013-03-18 03:54:00,61.0,53.8,30.00,SSE,158,0.0,1.3,77,0.00,,,0.00,WUHU216HW,2013-03-18 07:54:00,
2013-03-18 03:59:00,60.8,53.6,30.00,NE,45,0.7,1.3,77,0.00,,,0.00,WUHU216HW,2013-03-18 07:59:00,
2013-03-18 04:04:00,60.8,53.6,30.00,NNE,23,1.1,1.1,77,0.00,,,0.00,WUHU216HW,2013-03-18 08:04:00,
2013-03-18 04:09:00,60.8,53.6,30.00,NNE,23,0.4,1.3,77,0.00,,,0.00,WUHU216HW,2013-03-18 08:09:00,
2013-03-18 04:14:00,60.8,53.6,30.00,NE,45,0.9,1.3,77,0.00,,,0.00,WUHU216HW,2013-03-18 08:14:00,
2013-03-18 04:19:00,60.8,53.6,30.00,NNE,23,0.0,1.1,77,0.00,,,0.00,WUHU216HW,2013-03-18 08:19:00,
2013-03-18 04:24:00,60.8,53.6,30.00,NNE,23,0.0,0.9,77,0.00,,,0.00,WUHU216HW,2013-03-18 08:24:00,
2013-03-18 04:29:00,60.8,53.6,30.00,NNE,23,0.0,0.0,77,0.00,,,0.00,WUHU216HW,2013-03-18 08:29:00,
2013-03-18 04:34:00,60.7,53.5,30.00,West,270,0.0,0.0,77,0.00,,,0.00,WUHU216HW,2013-03-18 08:34:00,
2013-03-18 04:39:00,60.8,53.6,30.00,West,270,0.0,0.0,77,0.00,,,0.00,WUHU216HW,2013-03-18 08:39:00,
2013-03-18 04:44:00,60.7,53.8,30.00,West,270,0.0,0.0,78,0.00,,,0.00,WUHU216HW,2013-03-18 08:44:00,
2013-03-18 04:49:00,60.7,53.8,30.00,West,270,0.0,0.0,78,0.00,,,0.00,WUHU216HW,2013-03-18 08:49:00,
2013-03-18 04:54:00,60.7,53.8,30.00,West,270,0.0,0.0,78,0.00,,,0.00,WUHU216HW,2013-03-18 08:54:00,
2013-03-18 04:59:00,60.7,54.2,30.00,SW,225,0.0,0.7,79,0.00,,,0.00,WUHU216HW,2013-03-18 08:59:00,
2013-03-18 05:04:00,60.7,54.2,30.00,NNE,23,0.4,0.7,79,0.00,,,0.00,WUHU216HW,2013-03-18 09:04:00,
2013-03-18 05:09:00,60.7,54.2,30.00,NNE,23,0.0,0.7,79,0.00,,,0.00,WUHU216HW,2013-03-18 09:09:00,
2013-03-18 05:14:00,60.7,54.2,30.00,NNE,23,0.0,0.4,79,0.00,,,0.00,WUHU216HW,2013-03-18 09:14:00,
2013-03-18 05:19:00,60.7,54.2,30.00,WNW,293,0.0,0.0,79,0.00,,,0.00,WUHU216HW,2013-03-18 09:19:00,
2013-03-18 05:24:00,60.7,54.2,30.00,NW,315,0.0,0.0,79,0.00,,,0.00,WUHU216HW,2013-03-18 09:24:00,
2013-03-18 05:29:00,60.8,54.4,30.01,NW,315,0.0,0.0,79,0.00,,,0.00,WUHU216HW,2013-03-18 09:29:00,
2013-03-18 05:34:00,60.7,54.2,30.01,NNE,23,0.0,0.0,79,0.00,,,0.00,WUHU216HW,2013-03-18 09:34:00,
2013-03-18 05:39:00,60.7,54.2,30.01,NNE,23,0.0,0.0,79,0.00,,,0.00,WUHU216HW,2013-03-18 09:39:00,
2013-03-18 05:44:00,60.5,54.0,30.01,NNE,23,0.0,0.0,79,0.00,,,0.00,WUHU216HW,2013-03-18 09:44:00,
2013-03-18 05:49:00,60.5,54.0,30.01,NNE,23,0.0,0.4,79,0.00,,,0.00,WUHU216HW,2013-03-18 09:49:00,
2013-03-18 05:54:00,60.3,54.2,30.01,SSW,203,0.0,0.4,80,0.00,,,0.00,WUHU216HW,2013-03-18 09:54:00,
2013-03-18 05:59:00,60.3,54.2,30.01,ESE,113,0.0,0.0,80,0.00,,,0.00,WUHU216HW,2013-03-18 09:59:00,
2013-03-18 06:04:00,60.3,54.2,30.02,ESE,113,0.0,0.0,80,0.00,,,0.00,WUHU216HW,2013-03-18 10:04:00,
2013-03-18 06:09:00,60.3,54.2,30.01,East,90,0.0,0.0,80,0.00,,,0.00,WUHU216HW,2013-03-18 10:09:00,
2013-03-18 06:14:00,60.1,54.4,30.01,East,90,0.0,0.0,81,0.00,,,0.00,WUHU216HW,2013-03-18 10:14:00,
2013-03-18 06:19:00,60.1,54.4,30.02,NNE,23,0.0,0.9,81,0.00,,,0.00,WUHU216HW,2013-03-18 10:19:00,
2013-03-18 06:24:00,60.1,54.4,30.01,NNE,23,0.4,1.1,81,0.00,,,0.00,WUHU216HW,2013-03-18 10:24:00,
2013-03-18 06:29:00,60.1,54.4,30.02,NNE,23,0.0,1.1,81,0.00,,,0.00,WUHU216HW,2013-03-18 10:29:00,
2013-03-18 06:34:00,59.8,54.0,30.02,ENE,68,0.4,0.7,81,0.00,,,0.00,WUHU216HW,2013-03-18 10:34:00,
2013-03-18 06:39:00,59.8,54.3,30.03,NE,45,0.0,0.7,82,0.00,,,0.00,WUHU216HW,2013-03-18 10:39:00,
2013-03-18 06:44:00,59.8,54.3,30.03,North,0,1.1,1.8,82,0.00,,,0.00,WUHU216HW,2013-03-18 10:44:00,
2013-03-18 06:49:00,59.8,54.3,30.03,NE,45,0.7,1.8,82,0.00,,,0.00,WUHU216HW,2013-03-18 10:49:00,
2013-03-18 06:54:00,59.8,54.6,30.03,ENE,68,1.3,1.6,83,0.00,,,0.00,WUHU216HW,2013-03-18 10:54:00,
2013-03-18 06:59:00,59.8,54.3,30.03,NE,45,0.0,1.8,82,0.00,,,0.00,WUHU216HW,2013-03-18 10:59:00,
2013-03-18 07:04:00,59.8,54.6,30.03,ENE,68,1.1,1.8,83,0.00,,,0.00,WUHU216HW,2013-03-18 11:04:00,
2013-03-18 07:09:00,59.6,54.1,30.03,ESE,113,0.0,1.1,82,0.00,,,0.00,WUHU216HW,2013-03-18 11:09:00,
2013-03-18 07:14:00,59.6,54.1,30.03,ENE,68,0.2,1.1,82,0.00,,,0.00,WUHU216HW,2013-03-18 11:14:00,
2013-03-18 07:19:00,59.8,54.3,30.04,NE,45,0.7,1.1,82,0.00,,,0.00,WUHU216HW,2013-03-18 11:19:00,
2013-03-18 07:24:00,59.8,54.3,30.04,NE,45,0.0,1.1,82,0.00,,,0.00,WUHU216HW,2013-03-18 11:24:00,
2013-03-18 07:29:00,59.8,54.3,30.04,SSE,158,0.2,0.9,82,0.00,,,0.00,WUHU216HW,2013-03-18 11:29:00,
2013-03-18 07:34:00,59.8,54.3,30.03,East,90,0.0,0.9,82,0.00,,,0.00,WUHU216HW,2013-03-18 11:34:00,
2013-03-18 07:39:00,59.8,54.3,30.03,ENE,68,0.2,1.1,82,0.00,,,0.00,WUHU216HW,2013-03-18 11:39:00,
2013-03-18 07:44:00,59.8,54.3,30.03,NE,45,0.0,1.1,82,0.00,,,0.00,WUHU216HW,2013-03-18 11:44:00,
2013-03-18 07:49:00,59.8,54.0,30.04,SE,135,0.4,0.4,81,0.00,,,0.00,WUHU216HW,2013-03-18 11:49:00,
2013-03-18 07:54:00,59.9,54.2,30.03,NE,45,0.7,0.9,81,0.00,,,0.00,WUHU216HW,2013-03-18 11:54:00,
2013-03-18 07:59:00,59.9,54.2,30.03,ENE,68,0.7,0.9,81,0.00,,,0.00,WUHU216HW,2013-03-18 11:59:00,
2013-03-18 08:04:00,59.9,54.2,30.03,ENE,68,0.0,0.9,81,0.00,,,0.00,WUHU216HW,2013-03-18 12:04:00,
2013-03-18 08:09:00,60.1,54.4,30.03,ENE,68,0.0,0.7,81,0.00,,,0.00,WUHU216HW,2013-03-18 12:09:00,
2013-03-18 08:14:00,60.1,54.4,30.03,ENE,68,0.0,0.0,81,0.00,,,0.00,WUHU216HW,2013-03-18 12:14:00,
2013-03-18 08:19:00,60.1,54.4,30.03,ENE,68,0.0,0.0,81,0.00,,,0.00,WUHU216HW,2013-03-18 12:19:00,
2013-03-18 08:24:00,60.3,54.6,30.03,NE,45,0.0,0.0,81,0.00,,,0.00,WUHU216HW,2013-03-18 12:24:00,
2013-03-18 08:29:00,60.3,54.6,30.03,NE,45,0.0,0.0,81,0.00,,,0.00,WUHU216HW,2013-03-18 12:29:00,
2013-03-18 08:34:00,60.3,54.6,30.03,NE,45,0.0,0.0,81,0.00,,,0.00,WUHU216HW,2013-03-18 12:34:00,
2013-03-18 08:39:00,60.5,54.7,30.03,ESE,113,0.0,0.9,81,0.00,,,0.00,WUHU216HW,2013-03-18 12:39:00,
2013-03-18 08:44:00,60.5,54.7,30.03,ENE,68,0.0,0.9,81,0.00,,,0.00,WUHU216HW,2013-03-18 12:44:00,
2013-03-18 08:49:00,60.7,54.9,30.03,ENE,68,0.0,0.2,81,0.00,,,0.00,WUHU216HW,2013-03-18 12:49:00,
2013-03-18 08:54:00,60.8,54.7,30.03,ENE,68,0.0,0.2,80,0.00,,,0.00,WUHU216HW,2013-03-18 12:54:00,
2013-03-18 08:59:00,60.8,54.7,30.03,ENE,68,0.0,0.2,80,0.00,,,0.00,WUHU216HW,2013-03-18 12:59:00,
2013-03-18 09:04:00,61.0,54.9,30.04,ENE,68,0.0,0.0,80,0.00,,,0.00,WUHU216HW,2013-03-18 13:04:00,
2013-03-18 09:09:00,61.2,55.1,30.04,SSE,158,0.4,0.4,80,0.00,,,0.00,WUHU216HW,2013-03-18 13:09:00,
2013-03-18 09:14:00,61.4,55.2,30.04,SE,135,0.2,0.9,80,0.00,,,0.00,WUHU216HW,2013-03-18 13:14:00,
2013-03-18 09:19:00,61.6,55.4,30.04,ENE,68,0.0,0.9,80,0.00,,,0.00,WUHU216HW,2013-03-18 13:19:00,
2013-03-18 09:24:00,62.3,56.0,30.04,NNE,23,0.0,1.6,80,0.00,,,0.00,WUHU216HW,2013-03-18 13:24:00,
2013-03-18 09:29:00,62.6,56.0,30.04,South,180,1.8,1.8,79,0.00,,,0.00,WUHU216HW,2013-03-18 13:29:00,
2013-03-18 09:34:00,63.0,56.3,30.04,ENE,68,0.7,1.8,79,0.00,,,0.00,WUHU216HW,2013-03-18 13:34:00,
2013-03-18 09:39:00,63.2,56.5,30.04,NE,45,0.0,0.7,79,0.00,,,0.00,WUHU216HW,2013-03-18 13:39:00,
2013-03-18 09:44:00,63.4,56.7,30.03,SE,135,0.0,0.7,79,0.00,,,0.00,WUHU216HW,2013-03-18 13:44:00,
2013-03-18 09:49:00,63.5,57.2,30.04,ESE,113,1.1,3.4,80,0.00,,,0.00,WUHU216HW,2013-03-18 13:49:00,
2013-03-18 09:54:00,63.7,57.4,30.04,SE,135,3.4,3.4,80,0.00,,,0.00,WUHU216HW,2013-03-18 13:54:00,
2013-03-18 09:59:00,63.7,57.4,30.04,SE,135,0.7,3.4,80,0.00,,,0.00,WUHU216HW,2013-03-18 13:59:00,
2013-03-18 10:04:00,63.9,57.6,30.05,SSE,158,1.1,2.7,80,0.00,,,0.00,WUHU216HW,2013-03-18 14:04:00,
2013-03-18 10:09:00,64.1,57.4,30.04,SW,225,1.3,2.7,79,0.00,,,0.00,WUHU216HW,2013-03-18 14:09:00,
2013-03-18 10:14:00,64.4,57.8,30.05,SSE,158,2.5,2.5,79,0.00,,,0.00,WUHU216HW,2013-03-18 14:14:00,
2013-03-18 10:19:00,64.8,58.2,30.05,SW,225,1.8,2.5,79,0.00,,,0.00,WUHU216HW,2013-03-18 14:19:00,
2013-03-18 10:24:00,65.0,58.0,30.04,SW,225,1.1,2.9,78,0.00,,,0.00,WUHU216HW,2013-03-18 14:24:00,
2013-03-18 10:29:00,65.2,58.2,30.04,SSE,158,1.8,2.9,78,0.00,,,0.00,WUHU216HW,2013-03-18 14:29:00,
2013-03-18 10:35:00,65.5,58.2,30.04,SE,135,3.8,3.8,77,0.00,,,0.00,WUHU216HW,2013-03-18 14:35:00,
2013-03-18 10:40:00,66.2,58.8,30.04,SE,135,1.8,3.8,77,0.00,,,0.00,WUHU216HW,2013-03-18 14:40:00,
2013-03-18 10:45:00,66.6,58.8,30.04,SW,225,1.3,2.5,76,0.00,,,0.00,WUHU216HW,2013-03-18 14:45:00,
2013-03-18 10:50:00,66.8,58.6,30.04,SE,135,1.8,2.9,75,0.00,,,0.00,WUHU216HW,2013-03-18 14:50:00,
2013-03-18 10:55:00,67.1,59.0,30.04,South,180,1.1,2.9,75,0.00,,,0.00,WUHU216HW,2013-03-18 14:55:00,
2013-03-18 11:00:00,67.7,59.1,30.04,East,90,2.5,2.5,74,0.00,,,0.00,WUHU216HW,2013-03-18 15:00:00,
2013-03-18 11:05:00,67.7,58.8,30.04,SSE,158,2.2,4.0,73,0.00,,,0.00,WUHU216HW,2013-03-18 15:05:00,
2013-03-18 11:10:00,67.7,58.8,30.03,East,90,2.0,4.0,73,0.00,,,0.00,WUHU216HW,2013-03-18 15:10:00,
2013-03-18 11:15:00,67.7,58.8,30.03,ESE,113,1.1,4.0,73,0.00,,,0.00,WUHU216HW,2013-03-18 15:15:00,
2013-03-18 11:20:00,68.2,58.5,30.03,SSW,203,1.6,3.4,71,0.00,,,0.00,WUHU216HW,2013-03-18 15:20:00,
2013-03-18 11:25:00,68.4,58.3,30.03,SE,135,2.2,4.7,70,0.00,,,0.00,WUHU216HW,2013-03-18 15:25:00,
2013-03-18 11:30:00,69.3,59.1,30.03,ENE,68,1.1,6.3,70,0.00,,,0.00,WUHU216HW,2013-03-18 15:30:00,
2013-03-18 11:35:00,70.4,59.3,30.03,SSE,158,2.9,6.3,68,0.00,,,0.00,WUHU216HW,2013-03-18 15:35:00,
2013-03-18 11:40:00,71.8,59.9,30.03,South,180,2.0,4.7,66,0.00,,,0.00,WUHU216HW,2013-03-18 15:40:00,
2013-03-18 11:45:00,71.6,58.3,30.03,SE,135,5.1,5.1,63,0.00,,,0.00,WUHU216HW,2013-03-18 15:45:00,
2013-03-18 11:50:00,71.1,58.7,30.03,SSE,158,1.8,5.1,65,0.00,,,0.00,WUHU216HW,2013-03-18 15:50:00,
2013-03-18 11:55:00,71.6,59.2,30.03,SW,225,1.8,4.5,65,0.00,,,0.00,WUHU216HW,2013-03-18 15:55:00,
2013-03-18 12:00:00,72.5,59.2,30.02,South,180,1.8,5.8,63,0.00,,,0.00,WUHU216HW,2013-03-18 16:00:00,
2013-03-18 12:05:00,72.7,59.8,30.02,South,180,2.0,5.8,64,0.00,,,0.00,WUHU216HW,2013-03-18 16:05:00,
2013-03-18 12:10:00,72.2,59.3,30.03,SSE,158,4.7,7.4,64,0.00,,,0.00,WUHU216HW,2013-03-18 16:10:00,
2013-03-18 12:15:00,72.7,59.8,30.02,South,180,4.3,7.4,64,0.00,,,0.00,WUHU216HW,2013-03-18 16:15:00,
2013-03-18 12:20:00,73.1,59.7,30.02,WSW,248,3.6,4.7,63,0.00,,,0.00,WUHU216HW,2013-03-18 16:20:00,
2013-03-18 12:25:00,72.9,59.5,30.02,SSW,203,2.5,4.0,63,0.00,,,0.00,WUHU216HW,2013-03-18 16:25:00,
2013-03-18 12:30:00,73.3,60.8,30.02,SSW,203,1.8,4.5,65,0.00,,,0.00,WUHU216HW,2013-03-18 16:30:00,
2013-03-18 12:35:00,73.1,59.7,30.02,WSW,248,2.9,6.9,63,0.00,,,0.00,WUHU216HW,2013-03-18 16:35:00,
2013-03-18 12:40:00,72.7,59.8,30.02,WSW,248,1.1,6.9,64,0.00,,,0.00,WUHU216HW,2013-03-18 16:40:00,
2013-03-18 12:45:00,73.8,60.4,30.01,ESE,113,4.0,4.7,63,0.00,,,0.00,WUHU216HW,2013-03-18 16:45:00,
2013-03-18 12:50:00,74.5,60.2,30.00,South,180,4.7,7.8,61,0.00,,,0.00,WUHU216HW,2013-03-18 16:50:00,
2013-03-18 12:55:00,74.5,60.2,30.00,WSW,248,3.4,7.8,61,0.00,,,0.00,WUHU216HW,2013-03-18 16:55:00,
2013-03-18 13:00:00,75.2,60.5,30.00,SSW,203,2.2,6.5,60,0.00,,,0.00,WUHU216HW,2013-03-18 17:00:00,
2013-03-18 13:05:00,76.0,61.1,30.00,SW,225,3.1,6.5,60,0.00,,,0.00,WUHU216HW,2013-03-18 17:05:00,
2013-03-18 13:10:00,76.1,60.3,30.00,West,270,4.3,6.5,58,0.00,,,0.00,WUHU216HW,2013-03-18 17:10:00,
2013-03-18 13:15:00,76.7,59.8,30.00,West,270,4.0,6.3,56,0.00,,,0.00,WUHU216HW,2013-03-18 17:15:00,
2013-03-18 13:20:00,76.3,59.9,29.99,SW,225,4.7,6.3,57,0.00,,,0.00,WUHU216HW,2013-03-18 17:20:00,
2013-03-18 13:25:00,76.1,60.3,29.99,SW,225,4.3,5.8,58,0.00,,,0.00,WUHU216HW,2013-03-18 17:25:00,
2013-03-18 13:30:00,76.5,60.1,29.99,WSW,248,2.5,6.9,57,0.00,,,0.00,WUHU216HW,2013-03-18 17:30:00,
2013-03-18 13:35:00,76.0,59.6,29.98,SSE,158,3.4,6.9,57,0.00,,,0.00,WUHU216HW,2013-03-18 17:35:00,
2013-03-18 13:40:00,76.0,60.7,29.98,SE,135,2.5,4.5,59,0.00,,,0.00,WUHU216HW,2013-03-18 17:40:00,
2013-03-18 13:45:00,76.5,60.6,29.97,WSW,248,4.0,4.3,58,0.00,,,0.00,WUHU216HW,2013-03-18 17:45:00,
2013-03-18 13:50:00,77.0,60.6,29.97,SSW,203,3.6,7.6,57,0.00,,,0.00,WUHU216HW,2013-03-18 17:50:00,
2013-03-18 13:55:00,77.8,60.8,29.96,SW,225,6.3,7.6,56,0.00,,,0.00,WUHU216HW,2013-03-18 17:55:00,
2013-03-18 14:00:00,78.5,61.5,29.96,SSW,203,4.3,6.3,56,0.00,,,0.00,WUHU216HW,2013-03-18 18:00:00,
2013-03-18 14:05:00,78.3,60.8,29.96,South,180,4.3,4.9,55,0.00,,,0.00,WUHU216HW,2013-03-18 18:05:00,
2013-03-18 14:10:00,78.1,60.6,29.95,SSW,203,4.0,4.7,55,0.00,,,0.00,WUHU216HW,2013-03-18 18:10:00,
2013-03-18 14:15:00,77.2,59.8,29.96,West,270,5.8,5.8,55,0.00,,,0.00,WUHU216HW,2013-03-18 18:15:00,
2013-03-18 14:20:00,76.9,60.0,29.95,SSW,203,1.1,5.8,56,0.00,,,0.00,WUHU216HW,2013-03-18 18:20:00,
2013-03-18 14:25:00,76.9,60.4,29.95,West,270,3.6,3.6,57,0.00,,,0.00,WUHU216HW,2013-03-18 18:25:00,
2013-03-18 14:30:00,77.0,60.6,29.95,West,270,6.5,6.5,57,0.00,,,0.00,WUHU216HW,2013-03-18 18:30:00,
2013-03-18 14:35:00,76.7,60.3,29.95,SSE,158,0.7,6.5,57,0.00,,,0.00,WUHU216HW,2013-03-18 18:35:00,
2013-03-18 14:40:00,76.7,60.3,29.95,SW,225,2.5,5.6,57,0.00,,,0.00,WUHU216HW,2013-03-18 18:40:00,
2013-03-18 14:45:00,76.9,60.9,29.94,South,180,2.0,4.7,58,0.00,,,0.00,WUHU216HW,2013-03-18 18:45:00,
2013-03-18 14:50:00,77.4,60.9,29.93,SSE,158,3.4,4.7,57,0.00,,,0.00,WUHU216HW,2013-03-18 18:50:00,
2013-03-18 14:55:00,77.9,60.5,29.92,SSE,158,3.4,4.7,55,0.00,,,0.00,WUHU216HW,2013-03-18 18:55:00,
2013-03-18 15:00:00,78.1,60.6,29.92,SSW,203,4.7,4.7,55,0.00,,,0.00,WUHU216HW,2013-03-18 19:00:00,
2013-03-18 15:05:00,77.9,60.9,29.92,South,180,4.7,4.7,56,0.00,,,0.00,WUHU216HW,2013-03-18 19:05:00,
2013-03-18 15:10:00,77.8,60.8,29.91,SW,225,1.8,4.7,56,0.00,,,0.00,WUHU216HW,2013-03-18 19:10:00,
2013-03-18 15:15:00,78.3,60.8,29.91,SSE,158,8.1,8.1,55,0.00,,,0.00,WUHU216HW,2013-03-18 19:15:00,
2013-03-18 15:20:00,78.8,61.8,29.91,WSW,248,5.1,8.1,56,0.00,,,0.00,WUHU216HW,2013-03-18 19:20:00,
2013-03-18 15:25:00,79.2,61.7,29.90,South,180,3.6,5.1,55,0.00,,,0.00,WUHU216HW,2013-03-18 19:25:00,
2013-03-18 15:30:00,79.6,61.4,29.90,SW,225,2.2,4.9,54,0.00,,,0.00,WUHU216HW,2013-03-18 19:30:00,
2013-03-18 15:35:00,79.9,61.2,29.90,SW,225,5.4,5.4,53,0.00,,,0.00,WUHU216HW,2013-03-18 19:35:00,
2013-03-18 15:40:00,79.6,60.9,29.90,SE,135,5.1,5.4,53,0.00,,,0.00,WUHU216HW,2013-03-18 19:40:00,
2013-03-18 15:45:00,79.4,60.8,29.90,SSW,203,2.7,5.8,53,0.00,,,0.00,WUHU216HW,2013-03-18 19:45:00,
2013-03-18 15:50:00,79.7,61.0,29.90,SW,225,3.8,5.8,53,0.00,,,0.00,WUHU216HW,2013-03-18 19:50:00,
2013-03-18 15:55:00,79.4,60.8,29.89,SSW,203,3.8,4.9,53,0.00,,,0.00,WUHU216HW,2013-03-18 19:55:00,
2013-03-18 16:00:00,79.6,60.4,29.89,SSW,203,4.9,6.0,52,0.00,,,0.00,WUHU216HW,2013-03-18 20:00:00,
2013-03-18 16:05:00,79.6,60.9,29.89,WNW,293,3.8,6.0,53,0.00,,,0.00,WUHU216HW,2013-03-18 20:05:00,
2013-03-18 16:10:00,78.8,60.8,29.89,South,180,4.0,5.4,54,0.00,,,0.00,WUHU216HW,2013-03-18 20:10:00,
2013-03-18 16:15:00,78.5,60.9,29.89,WSW,248,3.8,4.7,55,0.00,,,0.00,WUHU216HW,2013-03-18 20:15:00,
2013-03-18 16:20:00,78.5,60.9,29.89,SSE,158,3.6,5.4,55,0.00,,,0.00,WUHU216HW,2013-03-18 20:20:00,
2013-03-18 16:25:00,78.8,61.3,29.88,WNW,293,3.6,5.4,55,0.00,,,0.00,WUHU216HW,2013-03-18 20:25:00,
2013-03-18 16:30:00,79.7,61.6,29.88,SE,135,3.4,4.7,54,0.00,,,0.00,WUHU216HW,2013-03-18 20:30:00,
2013-03-18 16:35:00,79.9,61.2,29.88,SW,225,2.5,4.7,53,0.00,,,0.00,WUHU216HW,2013-03-18 20:35:00,
2013-03-18 16:40:00,80.6,61.8,29.88,West,270,4.7,4.7,53,0.00,,,0.00,WUHU216HW,2013-03-18 20:40:00,
2013-03-18 16:45:00,80.8,61.0,29.88,SW,225,2.5,4.7,51,0.00,,,0.00,WUHU216HW,2013-03-18 20:45:00,
2013-03-18 16:50:00,80.3,61.0,29.89,West,270,5.6,5.6,52,0.00,,,0.00,WUHU216HW,2013-03-18 20:50:00,
2013-03-18 16:55:00,79.9,60.7,29.89,WSW,248,4.7,5.6,52,0.00,,,0.00,WUHU216HW,2013-03-18 20:55:00,
2013-03-18 17:00:00,80.1,60.8,29.89,SW,225,4.0,7.2,52,0.00,,,0.00,WUHU216HW,2013-03-18 21:00:00,
2013-03-18 17:05:00,79.9,60.7,29.89,SSW,203,3.6,4.9,52,0.00,,,0.00,WUHU216HW,2013-03-18 21:05:00,
2013-03-18 17:10:00,79.4,60.8,29.89,West,270,3.6,4.9,53,0.00,,,0.00,WUHU216HW,2013-03-18 21:10:00,
2013-03-18 17:15:00,79.2,60.6,29.89,WSW,248,2.5,4.0,53,0.00,,,0.00,WUHU216HW,2013-03-18 21:15:00,
2013-03-18 17:20:00,79.0,60.9,29.89,West,270,5.1,5.1,54,0.00,,,0.00,WUHU216HW,2013-03-18 21:20:00,
2013-03-18 17:25:00,79.2,61.1,29.89,ENE,68,2.5,5.1,54,0.00,,,0.00,WUHU216HW,2013-03-18 21:25:00,
2013-03-18 17:30:00,79.0,60.9,29.89,West,270,4.7,4.7,54,0.00,,,0.00,WUHU216HW,2013-03-18 21:30:00,
2013-03-18 17:35:00,79.0,60.9,29.89,SSW,203,4.0,4.9,54,0.00,,,0.00,WUHU216HW,2013-03-18 21:35:00,
2013-03-18 17:40:00,79.0,60.9,29.88,WSW,248,3.4,4.9,54,0.00,,,0.00,WUHU216HW,2013-03-18 21:40:00,
2013-03-18 17:45:00,79.0,60.9,29.87,SSW,203,2.7,4.5,54,0.00,,,0.00,WUHU216HW,2013-03-18 21:45:00,
2013-03-18 17:50:00,79.0,60.9,29.87,SSW,203,3.1,4.9,54,0.00,,,0.00,WUHU216HW,2013-03-18 21:50:00,
2013-03-18 17:55:00,78.8,60.8,29.87,SSW,203,3.6,7.6,54,0.00,,,0.00,WUHU216HW,2013-03-18 21:55:00,
2013-03-18 18:00:00,78.8,61.3,29.87,SSE,158,2.0,7.6,55,0.00,,,0.00,WUHU216HW,2013-03-18 22:00:00,
2013-03-18 18:05:00,78.8,61.3,29.87,SSW,203,4.3,4.9,55,0.00,,,0.00,WUHU216HW,2013-03-18 22:05:00,
2013-03-18 18:10:00,78.5,60.9,29.87,SW,225,3.8,6.7,55,0.00,,,0.00,WUHU216HW,2013-03-18 22:10:00,
2013-03-18 18:15:00,78.5,61.5,29.87,SSW,203,2.5,6.7,56,0.00,,,0.00,WUHU216HW,2013-03-18 22:15:00,
2013-03-18 18:20:00,78.1,61.1,29.87,South,180,5.4,5.4,56,0.00,,,0.00,WUHU216HW,2013-03-18 22:20:00,
2013-03-18 18:25:00,77.8,61.3,29.87,SSW,203,4.0,5.4,57,0.00,,,0.00,WUHU216HW,2013-03-18 22:25:00,
2013-03-18 18:30:00,77.6,61.1,29.87,South,180,8.1,8.1,57,0.00,,,0.00,WUHU216HW,2013-03-18 22:30:00,
2013-03-18 18:35:00,77.4,60.9,29.87,SW,225,2.5,8.1,57,0.00,,,0.00,WUHU216HW,2013-03-18 22:35:00,
2013-03-18 18:40:00,77.4,60.9,29.87,SSW,203,4.5,4.7,57,0.00,,,0.00,WUHU216HW,2013-03-18 22:40:00,
2013-03-18 18:45:00,77.4,60.9,29.87,SW,225,2.7,4.5,57,0.00,,,0.00,WUHU216HW,2013-03-18 22:45:00,
2013-03-18 18:50:00,77.2,61.3,29.86,WSW,248,2.0,3.6,58,0.00,,,0.00,WUHU216HW,2013-03-18 22:50:00,
2013-03-18 18:55:00,77.0,61.1,29.87,WSW,248,6.7,6.7,58,0.00,,,0.00,WUHU216HW,2013-03-18 22:55:00,
2013-03-18 19:00:00,76.9,60.9,29.86,South,180,2.5,6.7,58,0.00,,,0.00,WUHU216HW,2013-03-18 23:00:00,
2013-03-18 19:05:00,76.7,61.3,29.86,NNE,23,1.1,4.9,59,0.00,,,0.00,WUHU216HW,2013-03-18 23:05:00,
2013-03-18 19:10:00,76.5,61.1,29.86,South,180,1.1,4.9,59,0.00,,,0.00,WUHU216HW,2013-03-18 23:10:00,
2013-03-18 19:15:00,76.3,61.5,29.86,South,180,0.4,3.6,60,0.00,,,0.00,WUHU216HW,2013-03-18 23:15:00,
2013-03-18 19:20:00,76.1,61.3,29.87,SSE,158,2.2,2.5,60,0.00,,,0.00,WUHU216HW,2013-03-18 23:20:00,
2013-03-18 19:25:00,76.0,61.6,29.87,SW,225,0.9,2.2,61,0.00,,,0.00,WUHU216HW,2013-03-18 23:25:00,
2013-03-18 19:30:00,75.6,61.2,29.86,SSW,203,0.4,2.0,61,0.00,,,0.00,WUHU216HW,2013-03-18 23:30:00,
2013-03-18 19:35:00,75.2,61.4,29.86,SSE,158,0.4,2.5,62,0.00,,,0.00,WUHU216HW,2013-03-18 23:35:00,
2013-03-18 19:40:00,75.1,61.2,29.86,South,180,0.0,2.5,62,0.00,,,0.00,WUHU216HW,2013-03-18 23:40:00,
2013-03-18 19:45:00,74.9,61.0,29.85,South,180,0.0,1.1,62,0.00,,,0.00,WUHU216HW,2013-03-18 23:45:00,
2013-03-18 19:50:00,74.5,61.1,29.85,SSE,158,1.1,1.1,63,0.00,,,0.00,WUHU216HW,2013-03-18 23:50:00,
2013-03-18 19:55:00,74.2,61.2,29.85,South,180,0.9,1.1,64,0.00,,,0.00,WUHU216HW,2013-03-18 23:55:00,
2013-03-18 20:00:00,73.8,60.9,29.85,SSE,158,0.4,1.1,64,0.00,,,0.00,WUHU216HW,2013-03-19 00:00:00,
2013-03-18 20:05:00,73.4,60.9,29.85,SSE,158,0.0,1.1,65,0.00,,,0.00,WUHU216HW,2013-03-19 00:05:00,
2013-03-18 20:10:00,73.3,60.8,29.85,SSE,158,1.1,1.1,65,0.00,,,0.00,WUHU216HW,2013-03-19 00:10:00,
2013-03-18 20:15:00,73.1,61.0,29.85,SSW,203,1.1,1.3,66,0.00,,,0.00,WUHU216HW,2013-03-19 00:15:00,
2013-03-18 20:20:00,72.5,60.5,29.85,SSW,203,0.4,1.3,66,0.00,,,0.00,WUHU216HW,2013-03-19 00:20:00,
2013-03-18 20:25:00,72.4,60.8,29.85,South,180,0.9,0.9,67,0.00,,,0.00,WUHU216HW,2013-03-19 00:25:00,
2013-03-18 20:30:00,72.0,60.4,29.85,SSE,158,0.7,1.6,67,0.00,,,0.00,WUHU216HW,2013-03-19 00:30:00,
2013-03-18 20:35:00,71.8,61.1,29.85,SSE,158,0.7,1.6,69,0.00,,,0.00,WUHU216HW,2013-03-19 00:35:00,
2013-03-18 20:40:00,71.6,60.9,29.84,SSW,203,1.3,1.8,69,0.00,,,0.00,WUHU216HW,2013-03-19 00:40:00,
2013-03-18 20:45:00,71.5,60.3,29.84,South,180,0.4,1.8,68,0.00,,,0.00,WUHU216HW,2013-03-19 00:45:00,
2013-03-18 20:50:00,71.3,60.1,29.85,ESE,113,0.4,1.8,68,0.00,,,0.00,WUHU216HW,2013-03-19 00:50:00,
2013-03-18 20:55:00,71.3,60.1,29.85,NNE,23,0.0,1.6,68,0.00,,,0.00,WUHU216HW,2013-03-19 00:55:00,
2013-03-18 21:00:00,71.1,60.0,29.86,West,270,0.0,0.9,68,0.00,,,0.00,WUHU216HW,2013-03-19 01:00:00,
2013-03-18 21:05:00,70.9,60.2,29.87,SSW,203,0.9,0.9,69,0.00,,,0.00,WUHU216HW,2013-03-19 01:05:00,
2013-03-18 21:11:00,70.9,60.2,29.87,SSW,203,0.0,0.9,69,0.00,,,0.00,WUHU216HW,2013-03-19 01:11:00,
2013-03-18 21:16:00,70.9,60.2,29.87,SSW,203,0.0,0.7,69,0.00,,,0.00,WUHU216HW,2013-03-19 01:16:00,
2013-03-18 21:21:00,70.9,60.2,29.87,South,180,0.4,0.4,69,0.00,,,0.00,WUHU216HW,2013-03-19 01:21:00,
2013-03-18 21:26:00,70.9,60.7,29.88,South,180,0.7,1.1,70,0.00,,,0.00,WUHU216HW,2013-03-19 01:26:00,
2013-03-18 21:31:00,70.9,60.7,29.88,South,180,0.0,1.1,70,0.00,,,0.00,WUHU216HW,2013-03-19 01:31:00,
2013-03-18 21:36:00,70.9,60.7,29.89,SSW,203,0.0,0.4,70,0.00,,,0.00,WUHU216HW,2013-03-19 01:36:00,
2013-03-18 21:41:00,70.6,60.3,29.89,SW,225,0.4,0.7,70,0.00,,,0.00,WUHU216HW,2013-03-19 01:41:00,
2013-03-18 21:46:00,70.4,60.5,29.89,SW,225,0.4,1.1,71,0.00,,,0.00,WUHU216HW,2013-03-19 01:46:00,
2013-03-18 21:51:00,70.2,60.3,29.89,WNW,293,0.0,1.1,71,0.00,,,0.00,WUHU216HW,2013-03-19 01:51:00,
2013-03-18 21:56:00,70.0,60.1,29.90,West,270,0.4,1.1,71,0.00,,,0.00,WUHU216HW,2013-03-19 01:56:00,
2013-03-18 22:01:00,69.8,59.9,29.90,West,270,0.2,1.1,71,0.00,,,0.00,WUHU216HW,2013-03-19 02:01:00,
2013-03-18 22:06:00,69.8,59.9,29.91,WNW,293,0.4,1.1,71,0.00,,,0.00,WUHU216HW,2013-03-19 02:06:00,
2013-03-18 22:11:00,69.8,59.9,29.91,WSW,248,0.7,1.1,71,0.00,,,0.00,WUHU216HW,2013-03-19 02:11:00,
2013-03-18 22:16:00,69.7,60.2,29.91,SW,225,0.9,1.1,72,0.00,,,0.00,WUHU216HW,2013-03-19 02:16:00,
2013-03-18 22:21:00,69.3,60.2,29.92,SW,225,0.0,1.1,73,0.00,,,0.00,WUHU216HW,2013-03-19 02:21:00,
2013-03-18 22:26:00,69.1,60.0,29.92,West,270,1.1,1.8,73,0.00,,,0.00,WUHU216HW,2013-03-19 02:26:00,
2013-03-18 22:31:00,69.1,60.5,29.92,West,270,1.8,1.8,74,0.00,,,0.00,WUHU216HW,2013-03-19 02:31:00,
2013-03-18 22:36:00,69.1,60.5,29.93,SW,225,1.6,1.8,74,0.00,,,0.00,WUHU216HW,2013-03-19 02:36:00,
2013-03-18 22:41:00,69.1,60.5,29.93,West,270,1.8,2.5,74,0.00,,,0.00,WUHU216HW,2013-03-19 02:41:00,
2013-03-18 22:46:00,69.3,60.6,29.93,West,270,1.6,2.5,74,0.00,,,0.00,WUHU216HW,2013-03-19 02:46:00,
2013-03-18 22:51:00,69.3,60.6,29.93,SSW,203,0.0,2.2,74,0.00,,,0.00,WUHU216HW,2013-03-19 02:51:00,
2013-03-18 22:56:00,69.3,60.2,29.94,NW,315,0.0,1.3,73,0.00,,,0.00,WUHU216HW,2013-03-19 02:56:00,
2013-03-18 23:01:00,69.1,60.5,29.95,North,0,1.8,2.2,74,0.00,,,0.00,WUHU216HW,2013-03-19 03:01:00,
2013-03-18 23:06:00,68.9,61.0,29.97,NE,45,3.6,3.6,76,0.00,,,0.00,WUHU216HW,2013-03-19 03:06:00,
2013-03-18 23:11:00,68.8,59.4,29.97,NNE,23,1.6,4.3,72,0.00,,,0.00,WUHU216HW,2013-03-19 03:11:00,
2013-03-18 23:16:00,68.6,58.1,29.98,NNE,23,4.9,6.9,69,0.00,,,0.00,WUHU216HW,2013-03-19 03:16:00,
2013-03-18 23:21:00,67.9,56.9,29.98,NE,45,2.5,6.9,68,0.00,,,0.00,WUHU216HW,2013-03-19 03:21:00,
2013-03-18 23:26:00,67.1,55.8,29.98,NNE,23,1.1,6.3,67,0.00,,,0.00,WUHU216HW,2013-03-19 03:26:00,
2013-03-18 23:31:00,66.6,55.7,29.99,North,0,1.1,6.3,68,0.00,,,0.00,WUHU216HW,2013-03-19 03:31:00,
2013-03-18 23:36:00,66.2,55.7,30.00,North,0,3.8,6.3,69,0.00,,,0.00,WUHU216HW,2013-03-19 03:36:00,
2013-03-18 23:41:00,65.5,56.3,30.00,North,0,2.5,3.8,72,0.02,,,0.02,WUHU216HW,2013-03-19 03:41:00,
2013-03-18 23:46:00,64.4,56.3,30.00,North,0,2.9,3.4,75,0.09,,,0.09,WUHU216HW,2013-03-19 03:46:00,
2013-03-18 23:51:00,63.5,56.2,30.00,North,0,1.1,3.4,77,0.10,,,0.11,WUHU216HW,2013-03-19 03:51:00,
2013-03-18 23:56:00,63.0,55.6,30.00,North,0,2.5,3.4,77,0.13,,,0.14,WUHU216HW,2013-03-19 03:56:00,